GW2929 Weather Reports


Display with metric or nautical units.
time (UTC)temp
F
wind
direction
speed
MPH
gust
MPH
rain 1hr
in
rain 24hr
in
rain mn
in
humidity
%
barometer
mb
20260903130806 83 213 0.0 0.0 0.00 0.00 0.00 93 1008.4
20260903130301 83 198 2.0 3.0 0.00 0.00 0.00 94 1008.3
20260903125759 83 145 0.0 0.0 0.00 0.00 0.00 94 1008.3
20260903125255 82 187 0.0 1.0 0.00 0.00 0.00 94 1008.3
20260903124754 82 223 0.0 0.0 0.00 0.00 0.00 94 1008.3
20260903124250 82 220 0.0 0.0 0.00 0.00 0.00 95 1008.3
20260903123748 82 204 0.0 0.0 0.00 0.00 0.00 95 1008.4
20260903123248 82 169 0.0 0.0 0.00 0.00 0.00 95 1008.4
20260903122746 82 209 0.0 0.0 0.00 0.00 0.00 95 1008.2
20260903122236 82 191 2.0 3.0 0.00 0.00 0.00 95 1008.1
20260903121734 82 228 0.0 0.0 0.00 0.00 0.00 95 1008.1
20260903121231 82 232 0.0 0.0 0.00 0.00 0.00 96 1008.1
20260903120731 82 222 0.0 0.0 0.00 0.00 0.00 96 1008.2
20260903120224 82 234 0.0 0.0 0.00 0.00 0.00 96 1008.0
20260903115723 82 205 0.0 0.0 0.00 0.00 0.00 96 1008.0
20260903115218 82 209 0.0 0.0 0.00 0.00 0.00 96 1007.8
20260903114712 82 218 0.0 0.0 0.00 0.00 0.00 96 1008.1
20260903114209 82 218 0.0 0.0 0.00 0.00 0.00 96 1008.0
20260903113709 82 218 0.0 0.0 0.00 0.00 0.00 97 1008.0
20260903113205 82 226 0.0 0.0 0.00 0.00 0.00 97 1008.1
20260903112701 82 208 0.0 0.0 0.00 0.00 0.00 97 1008.2
20260903112156 82 217 0.0 0.0 0.00 0.00 0.00 96 1008.2
20260903111655 82 222 0.0 0.0 0.00 0.00 0.00 96 1008.0
20260903111150 82 215 0.0 0.0 0.00 0.00 0.00 96 1008.1
20260903110647 82 221 0.0 0.0 0.00 0.00 0.00 96 1008.2
20260903110142 82 246 0.0 0.0 0.00 0.00 0.00 96 1008.1
20260903105636 82 204 0.0 0.0 0.00 0.00 0.00 96 1008.0
20260903105132 82 218 0.0 1.0 0.00 0.00 0.00 96 1008.2
20260903104631 82 212 0.0 0.0 0.00 0.00 0.00 96 1008.2
20260903104127 82 192 0.0 0.0 0.00 0.00 0.00 96 1008.0
20260903103622 82 214 0.0 0.0 0.00 0.00 0.00 96 1008.2
20260903103119 82 218 0.0 0.0 0.00 0.00 0.00 96 1008.3
20260903102614 82 209 0.0 0.0 0.00 0.00 0.00 96 1008.2
20260903102113 82 209 0.0 0.0 0.00 0.00 0.00 95 1008.0
20260903101607 82 210 0.0 0.0 0.00 0.00 0.00 95 1008.0
20260903101103 83 215 0.0 0.0 0.00 0.00 0.00 95 1008.2
20260903100603 83 194 1.0 2.0 0.00 0.00 0.00 95 1008.1
20260903095554 83 170 2.0 3.0 0.00 0.00 0.00 95 1008.0
20260903095049 83 210 0.0 0.0 0.00 0.00 0.00 95 1008.1
20260903094549 83 217 0.0 0.0 0.00 0.00 0.00 95 1007.9
20260903094045 83 222 0.0 1.0 0.00 0.00 0.00 95 1008.2
20260903093545 83 198 3.0 3.0 0.00 0.00 0.00 95 1008.3
20260903093040 83 205 0.0 0.0 0.00 0.00 0.00 94 1008.3
20260903092539 83 116 0.0 0.0 0.00 0.00 0.00 94 1008.3
20260903092034 83 214 0.0 0.0 0.00 0.00 0.00 94 1008.0
20260903091532 83 226 0.0 0.0 0.00 0.00 0.00 94 1008.3
20260903091027 83 166 2.0 3.0 0.00 0.00 0.00 94 1008.0
20260903090523 83 238 0.0 1.0 0.00 0.00 0.00 94 1008.1
20260903090022 83 170 2.0 3.0 0.00 0.00 0.00 94 1008.0
20260903085520 83 218 0.0 0.0 0.00 0.00 0.00 94 1008.3
20260903085016 83 213 0.0 0.0 0.00 0.00 0.00 94 1008.2
20260903084514 83 151 0.0 1.0 0.00 0.00 0.00 93 1008.0
20260903084009 83 200 0.0 0.0 0.00 0.00 0.00 93 1008.2
20260903083505 83 203 0.0 0.0 0.00 0.00 0.00 93 1008.2
20260903083004 84 193 2.0 3.0 0.00 0.00 0.00 93 1007.9
20260903082459 84 201 0.0 0.0 0.00 0.00 0.00 93 1007.9
20260903081954 84 195 1.0 2.0 0.00 0.00 0.00 93 1008.2
20260903081449 84 232 2.0 3.0 0.00 0.00 0.00 93 1008.1
20260903080946 84 192 1.0 1.0 0.00 0.00 0.00 93 1008.2
20260903080441 84 189 0.0 0.0 0.00 0.00 0.00 93 1008.2
20260903075937 83 209 0.0 0.0 0.00 0.00 0.00 93 1008.3
20260903075432 84 171 2.0 2.0 0.00 0.00 0.00 93 1008.2
20260903074927 84 201 2.0 3.0 0.00 0.00 0.00 93 1007.9
20260903074426 84 189 1.0 1.0 0.00 0.00 0.00 93 1007.9
20260903073922 84 204 0.0 1.0 0.00 0.00 0.00 93 1008.1
20260903073417 84 222 2.0 3.0 0.00 0.00 0.00 93 1008.2
20260903072913 84 201 2.0 4.0 0.00 0.00 0.00 93 1007.9
20260903072409 84 205 0.0 0.0 0.00 0.00 0.00 93 1007.9
20260903071905 84 200 0.0 1.0 0.00 0.00 0.00 93 1007.8
20260903071401 84 205 0.0 0.0 0.00 0.00 0.00 93 1008.0
20260903070856 84 186 2.0 2.0 0.00 0.00 0.00 93 1008.1
20260903070351 84 175 0.0 1.0 0.00 0.00 0.00 93 1007.9
20260903065846 84 198 1.0 2.0 0.00 0.00 0.00 93 1008.2
20260903065345 84 220 0.0 1.0 0.00 0.00 0.00 93 1008.1
20260903064844 84 180 1.0 2.0 0.00 0.00 0.00 93 1008.2
20260903064340 84 211 2.0 2.0 0.00 0.00 0.00 93 1008.3
20260903063836 84 170 0.0 1.0 0.00 0.00 0.00 93 1008.1
20260903063330 84 196 1.0 1.0 0.00 0.00 0.00 92 1008.2
20260903062821 84 212 2.0 2.0 0.00 0.00 0.00 92 1008.3
20260903062321 84 208 0.0 0.0 0.00 0.00 0.00 92 1008.2
20260903061817 84 188 0.0 1.0 0.00 0.00 0.00 92 1008.4
20260903061316 84 195 1.0 3.0 0.00 0.00 0.00 92 1008.4
20260903060813 84 212 1.0 2.0 0.00 0.00 0.00 92 1008.4
20260903060311 84 217 0.0 0.0 0.00 0.00 0.00 92 1008.5
20260903055809 84 212 2.0 2.0 0.00 0.00 0.00 92 1008.5
20260903055308 84 179 1.0 2.0 0.00 0.00 0.00 92 1008.4
20260903054802 84 204 0.0 0.0 0.00 0.00 0.00 92 1008.3
20260903054257 84 221 1.0 3.0 0.00 0.00 0.00 92 1008.3
20260903053754 84 223 0.0 1.0 0.00 0.00 0.00 91 1008.4
20260903053254 84 146 2.0 4.0 0.00 0.00 0.00 91 1008.4
20260903052744 84 146 2.0 6.0 0.00 0.00 0.00 91 1008.3
20260903052239 84 184 4.0 8.0 0.00 0.00 0.00 91 1008.3
20260903051734 84 210 2.0 3.0 0.00 0.00 0.00 91 1008.5
20260903051230 84 203 1.0 2.0 0.00 0.00 0.00 91 1008.5
20260903050726 84 230 2.0 2.0 0.00 0.00 0.00 91 1008.5
20260903050224 84 192 1.0 2.0 0.00 0.00 0.00 91 1008.6
20260903045720 85 215 0.0 1.0 0.00 0.00 0.00 91 1008.5
20260903045216 85 163 4.0 4.0 0.00 0.00 0.00 91 1008.3
20260903044712 85 193 3.0 6.0 0.00 0.00 0.00 91 1008.2
20260903044207 85 192 2.0 3.0 0.00 0.00 0.00 91 1008.4
20260903043704 85 214 1.0 1.0 0.00 0.00 0.00 91 1008.5
20260903043203 85 254 1.0 1.0 0.00 0.00 0.00 91 1008.2
20260903042702 85 181 3.0 3.0 0.00 0.00 0.00 91 1008.6
20260903042157 85 196 0.0 1.0 0.00 0.00 0.00 91 1008.6
20260903041654 85 178 3.0 4.0 0.00 0.00 0.00 91 1008.6
20260903041149 85 192 4.0 7.0 0.00 0.00 0.00 91 1008.6
20260903040648 85 148 2.0 3.0 0.00 0.00 0.00 91 1008.5
20260903040144 85 218 1.0 1.0 0.00 0.00 0.00 91 1008.4
20260903035640 85 210 4.0 6.0 0.00 0.00 0.00 91 1008.5
20260903035135 85 207 3.0 3.0 0.00 0.00 0.00 91 1008.3
20260903034629 85 156 4.0 7.0 0.00 0.00 0.00 91 1008.4
20260903034119 85 173 3.0 3.0 0.00 0.00 0.00 91 1008.3
20260903033615 85 124 5.0 6.0 0.00 0.00 0.00 91 1008.3
20260903033109 85 217 0.0 1.0 0.00 0.00 0.00 91 1007.8
20260903032610 85 169 2.0 2.0 0.00 0.00 0.00 91 1008.1
20260903032105 85 212 1.0 1.0 0.00 0.00 0.00 91 1008.1
20260903031600 85 179 1.0 1.0 0.00 0.00 0.00 91 1008.0
20260903031055 85 198 3.0 6.0 0.00 0.00 0.00 90 1008.0
20260903030551 85 178 2.0 8.0 0.00 0.00 0.00 90 1007.9
20260903030047 85 173 4.0 7.0 0.00 0.00 0.00 90 1008.0
20260903025542 85 198 1.0 2.0 0.00 0.00 0.00 90 1007.7
20260903025038 85 206 1.0 2.0 0.00 0.00 0.00 90 1007.9
20260903024537 85 216 2.0 3.0 0.00 0.00 0.00 90 1007.7
20260903024032 85 222 3.0 4.0 0.00 0.00 0.00 90 1007.6
20260903023527 85 206 1.0 2.0 0.00 0.00 0.00 90 1007.8
20260903023023 85 196 4.0 6.0 0.00 0.00 0.00 89 1007.5
20260903022522 85 164 4.0 7.0 0.00 0.00 0.00 89 1007.4
20260903022020 85 215 0.0 2.0 0.00 0.00 0.00 89 1007.3
20260903021515 85 177 6.0 8.0 0.00 0.00 0.00 89 1007.2
20260903021010 85 194 4.0 4.0 0.00 0.00 0.00 89 1007.3
20260903020505 85 213 2.0 2.0 0.00 0.00 0.00 89 1007.2
20260903020000 85 199 4.0 4.0 0.00 0.00 0.00 90 1007.1
20260903015456 85 224 4.0 7.0 0.00 0.00 0.00 89 1007.1
20260903014956 85 237 6.0 8.0 0.00 0.00 0.00 89 1006.9
20260903014450 85 149 3.0 4.0 0.00 0.00 0.00 89 1006.7
20260903013945 85 206 2.0 3.0 0.00 0.00 0.00 89 1006.5
20260903013445 86 281 1.0 3.0 0.00 0.00 0.00 89 1006.6
20260903012944 85 176 4.0 7.0 0.00 0.00 0.00 89 1006.5
20260903012443 86 199 0.0 1.0 0.00 0.00 0.00 88 1006.9
20260903011942 86 190 3.0 4.0 0.00 0.00 0.00 88 1006.8
20260903011437 86 156 2.0 2.0 0.00 0.00 0.00 88 1006.7
20260903010932 86 188 2.0 2.0 0.00 0.00 0.00 88 1006.6
20260903010428 86 199 2.0 3.0 0.00 0.00 0.00 87 1006.4
20260903005925 86 160 5.0 11.0 0.00 0.00 0.00 87 1006.4
20260903005421 86 244 0.0 1.0 0.00 0.00 0.00 87 1006.4
20260903004917 86 215 3.0 4.0 0.00 0.00 0.00 87 1006.7
20260903004412 86 235 2.0 3.0 0.00 0.00 0.00 87 1006.4
20260903003908 86 176 1.0 2.0 0.00 0.00 0.00 86 1006.6
20260903003407 86 208 3.0 4.0 0.00 0.00 0.00 86 1006.5
20260903002902 86 321 6.0 9.0 0.00 0.00 0.00 85 1006.7
20260903002357 87 201 1.0 2.0 0.00 0.00 0.00 84 1006.7
20260903001857 87 180 2.0 3.0 0.00 0.00 0.00 84 1006.4
20260903001352 87 208 3.0 3.0 0.00 0.00 0.00 84 1006.5
20260903000852 87 201 2.0 3.0 0.00 0.00 0.00 84 1006.5
20260903000347 87 237 2.0 3.0 0.00 0.00 0.00 83 1006.4
20260902235845 87 190 2.0 3.0 0.00 0.00 0.00 82 1006.4
20260902235340 88 213 1.0 2.0 0.00 0.00 0.00 81 1006.6
20260902234840 88 190 6.0 9.0 0.00 0.00 0.00 81 1006.8
20260902234335 88 150 4.0 6.0 0.00 0.00 0.00 81 1006.7
20260902233833 89 213 1.0 2.0 0.00 0.00 0.00 80 1006.6
20260902233333 89 199 2.0 4.0 0.00 0.00 0.00 79 1006.4
20260902232832 89 183 2.0 3.0 0.00 0.00 0.00 79 1006.8
20260902232327 89 226 3.0 3.0 0.00 0.00 0.00 78 1006.5
20260902231826 89 249 3.0 4.0 0.00 0.00 0.00 78 1006.7
20260902231322 89 198 4.0 6.0 0.00 0.00 0.00 78 1006.7
20260902230817 90 280 5.0 8.0 0.00 0.00 0.00 78 1006.4
20260902230316 90 103 2.0 6.0 0.00 0.00 0.00 77 1006.3
20260902225810 90 204 3.0 4.0 0.00 0.00 0.00 78 1006.7
20260902225306 90 225 3.0 4.0 0.00 0.00 0.00 77 1006.4
20260902224804 91 208 1.0 2.0 0.00 0.00 0.00 77 1006.3
20260902224259 91 54 2.0 4.0 0.00 0.00 0.00 77 1006.3
20260902223756 91 180 7.0 10.0 0.00 0.00 0.00 76 1006.5
20260902223255 91 176 3.0 4.0 0.00 0.00 0.00 76 1006.3
20260902222748 91 203 2.0 4.0 0.00 0.00 0.00 75 1006.5
20260902222243 92 144 4.0 7.0 0.00 0.00 0.00 75 1006.5
20260902221737 92 192 4.0 7.0 0.00 0.00 0.00 73 1006.4
20260902221236 91 235 2.0 4.0 0.00 0.00 0.00 75 1006.7
20260902220731 92 176 3.0 3.0 0.00 0.00 0.00 75 1006.7
20260902220226 92 168 2.0 3.0 0.00 0.00 0.00 74 1006.5
20260902215722 92 214 1.0 1.0 0.00 0.00 0.00 74 1006.5
20260902215217 93 206 2.0 3.0 0.00 0.00 0.00 73 1006.6
20260902214713 92 208 1.0 1.0 0.00 0.00 0.00 74 1006.5
20260902214211 92 168 3.0 4.0 0.00 0.00 0.00 73 1006.7
20260902213707 92 197 4.0 4.0 0.00 0.00 0.00 74 1006.9
20260902213201 92 221 1.0 2.0 0.00 0.00 0.00 74 1006.7
20260902212656 92 221 2.0 3.0 0.00 0.00 0.00 73 1006.8
20260902212153 92 195 2.0 2.0 0.00 0.00 0.00 72 1006.8
20260902211649 93 190 3.0 3.0 0.00 0.00 0.00 72 1006.9
20260902211149 94 222 3.0 4.0 0.00 0.00 0.00 71 1006.9
20260902210648 94 202 1.0 1.0 0.00 0.00 0.00 69 1006.9
20260902210143 94 222 3.0 3.0 0.00 0.00 0.00 70 1007.1
20260902205642 95 226 2.0 2.0 0.00 0.00 0.00 68 1007.0
20260902205137 96 159 1.0 4.0 0.00 0.00 0.00 67 1007.0
20260902204632 95 274 1.0 1.0 0.00 0.00 0.00 68 1006.9
20260902204126 96 219 2.0 3.0 0.00 0.00 0.00 66 1007.1
20260902203622 96 201 2.0 2.0 0.00 0.00 0.00 68 1007.1
20260902203121 97 218 2.0 2.0 0.00 0.00 0.00 65 1007.5
20260902202612 96 306 2.0 2.0 0.00 0.00 0.00 64 1007.2
20260902202109 96 215 2.0 3.0 0.00 0.00 0.00 69 1007.2
20260902201604 96 161 2.0 3.0 0.00 0.00 0.00 65 1007.3
20260902201103 97 195 2.0 3.0 0.00 0.00 0.00 64 1007.6
20260902200558 98 215 2.0 3.0 0.00 0.00 0.00 64 1007.5
20260902200054 98 195 2.0 3.0 0.00 0.00 0.00 64 1007.5
20260902195550 96 220 1.0 2.0 0.00 0.00 0.00 65 1007.9
20260902195048 97 222 1.0 1.0 0.00 0.00 0.00 65 1007.8
20260902194542 97 134 4.0 4.0 0.00 0.00 0.00 63 1007.9
20260902194038 97 222 3.0 4.0 0.00 0.00 0.00 65 1007.8
20260902193534 96 191 2.0 4.0 0.00 0.00 0.00 66 1007.8
20260902193033 96 201 4.0 4.0 0.00 0.00 0.00 65 1008.0
20260902192532 97 168 3.0 4.0 0.00 0.00 0.00 65 1008.0
20260902192030 98 218 1.0 1.0 0.00 0.00 0.00 63 1008.0
20260902191526 97 210 2.0 3.0 0.00 0.00 0.00 64 1008.2
20260902191020 97 226 5.0 7.0 0.00 0.00 0.00 64 1008.3
20260902190516 97 216 1.0 2.0 0.00 0.00 0.00 65 1008.2
20260902190011 96 211 4.0 8.0 0.00 0.00 0.00 65 1008.3
20260902185508 96 250 1.0 1.0 0.00 0.00 0.00 66 1008.2
20260902185003 97 211 1.0 2.0 0.00 0.00 0.00 66 1008.4
20260902184458 96 174 2.0 6.0 0.00 0.00 0.00 65 1008.4
20260902183952 97 180 4.0 7.0 0.00 0.00 0.00 64 1008.7
20260902183449 97 226 2.0 3.0 0.00 0.00 0.00 65 1008.5
20260902182939 97 126 2.0 3.0 0.00 0.00 0.00 65 1008.7
20260902182435 96 206 0.0 1.0 0.00 0.00 0.00 66 1008.6
20260902181931 95 200 2.0 2.0 0.00 0.00 0.00 67 1008.8
20260902181427 97 203 2.0 4.0 0.00 0.00 0.00 65 1008.7
20260902180921 97 193 4.0 4.0 0.00 0.00 0.00 65 1009.1
20260902180416 96 189 3.0 4.0 0.00 0.00 0.00 65 1008.9
20260902175912 97 220 2.0 3.0 0.00 0.00 0.00 63 1009.1
20260902175406 97 219 1.0 2.0 0.00 0.00 0.00 64 1009.3
20260902174902 97 178 3.0 6.0 0.00 0.00 0.00 62 1009.4
20260902174359 96 219 1.0 2.0 0.00 0.00 0.00 65 1009.1
20260902173849 98 218 1.0 2.0 0.00 0.00 0.00 63 1009.3
20260902173348 98 184 2.0 4.0 0.00 0.00 0.00 56 1009.4
20260902172843 98 119 3.0 4.0 0.00 0.00 0.00 57 1009.4
20260902172342 98 167 1.0 3.0 0.00 0.00 0.00 57 1009.6
20260902171837 98 196 2.0 2.0 0.00 0.00 0.00 57 1009.4
20260902171332 98 233 0.0 0.0 0.00 0.00 0.00 57 1009.6
20260902170823 97 211 1.0 2.0 0.00 0.00 0.00 57 1009.9
20260902170319 97 181 2.0 2.0 0.00 0.00 0.00 56 1009.8
20260902165814 97 218 3.0 4.0 0.00 0.00 0.00 56 1010.0
20260902165313 96 194 2.0 3.0 0.00 0.00 0.00 57 1010.0
20260902164808 96 208 2.0 2.0 0.00 0.00 0.00 58 1010.1
20260902164302 96 184 2.0 3.0 0.00 0.00 0.00 58 1010.1
20260902163752 97 204 2.0 3.0 0.00 0.00 0.00 57 1010.2
20260902163251 97 233 1.0 2.0 0.00 0.00 0.00 56 1010.0
20260902162750 96 104 2.0 4.0 0.00 0.00 0.00 57 1010.2
20260902162245 97 178 5.0 7.0 0.00 0.00 0.00 55 1010.3
20260902161740 95 211 1.0 2.0 0.00 0.00 0.00 58 1010.1
20260902161235 95 220 2.0 2.0 0.00 0.00 0.00 60 1010.4
20260902160731 96 170 2.0 3.0 0.00 0.00 0.00 60 1010.3
20260902160226 95 238 1.0 2.0 0.00 0.00 0.00 63 1010.3
20260902155724 93 217 1.0 1.0 0.00 0.00 0.00 66 1010.4
20260902155223 93 197 1.0 1.0 0.00 0.00 0.00 66 1010.5
20260902154718 94 203 1.0 1.0 0.00 0.00 0.00 66 1010.3
20260902154213 93 234 0.0 1.0 0.00 0.00 0.00 68 1010.5
20260902153712 92 214 1.0 2.0 0.00 0.00 0.00 69 1010.7
20260902153207 92 226 3.0 4.0 0.00 0.00 0.00 71 1010.5
20260902152703 91 213 1.0 1.0 0.00 0.00 0.00 72 1010.5
20260902152158 91 218 0.0 1.0 0.00 0.00 0.00 72 1010.6
20260902151654 91 222 1.0 1.0 0.00 0.00 0.00 73 1010.3
20260902151148 91 217 1.0 2.0 0.00 0.00 0.00 74 1010.6
20260902150643 90 110 3.0 4.0 0.00 0.00 0.00 75 1010.5
20260902150139 89 225 2.0 2.0 0.00 0.00 0.00 76 1010.4
20260902145639 90 163 3.0 3.0 0.00 0.00 0.00 75 1010.4
20260902145138 89 217 1.0 1.0 0.00 0.00 0.00 78 1010.3
20260902144635 89 181 1.0 2.0 0.00 0.00 0.00 79 1010.4
20260902144130 88 221 1.0 2.0 0.00 0.00 0.00 81 1010.5
20260902143625 88 217 2.0 2.0 0.00 0.00 0.00 81 1010.4
20260902143121 88 212 0.0 0.0 0.00 0.00 0.00 81 1010.4
20260902142616 88 169 2.0 2.0 0.00 0.00 0.00 81 1010.4
20260902142112 87 132 1.0 3.0 0.00 0.00 0.00 83 1010.4
20260902141611 86 217 0.0 0.0 0.00 0.00 0.00 85 1010.2
20260902141107 86 216 0.0 0.0 0.00 0.00 0.00 85 1010.3
20260902140602 85 216 0.0 0.0 0.00 0.00 0.00 86 1010.1
20260902140057 85 207 1.0 1.0 0.00 0.00 0.00 86 1010.3
20260902135556 85 175 1.0 2.0 0.00 0.00 0.00 86 1010.3
20260902135056 85 196 0.0 0.0 0.00 0.00 0.00 87 1010.2
20260902134552 84 216 2.0 2.0 0.00 0.00 0.00 87 1010.0
20260902134046 84 208 0.0 0.0 0.00 0.00 0.00 88 1009.9
20260902133541 83 198 0.0 1.0 0.00 0.00 0.00 89 1009.9
20260902133036 83 217 0.0 0.0 0.00 0.00 0.00 90 1010.2
20260902132531 83 217 0.0 1.0 0.00 0.00 0.00 90 1010.0
20260902132027 82 218 1.0 1.0 0.00 0.00 0.00 91 1010.0
20260902131523 82 189 1.0 2.0 0.00 0.00 0.00 91 1009.9